When you browse on this site, cookies collect data to enhance your experience and personalize the content and advertising you see.
Visit our Privacy Policy to learn more. By continuing to use the site, you agree to this use of cookies and data.

Hourly Weather Wolfsberg

Today, 12 July, Sunday

Time Temperature Precipitation Wind Pressure Humidity
00:00 +12°C° 0 mm 1 mps 721 mmHg 97%
01:00 +12°C° 0 mm 1 mps 721 mmHg 96%
02:00 +12°C° 0 mm 1 mps 721 mmHg 96%
03:00 +11°C° 0 mm 1 mps 721 mmHg 96%
04:00 +11°C° 0 mm 1 mps 721 mmHg 96%
05:00 +12°C° 0 mm 1 mps 721 mmHg 94%
06:00 +14°C° 0 mm 1 mps 722 mmHg 92%
07:00 +14°C° 0 mm 0 mps 722 mmHg 90%
08:00 +18°C° 0 mm 1 mps 722 mmHg 78%
09:00 +20°C° 0 mm 1 mps 722 mmHg 65%
10:00 +23°C° 0 mm 1 mps 723 mmHg 53%
11:00 +23°C° 0 mm 1 mps 722 mmHg 52%
12:00 +23°C° 0 mm 1 mps 722 mmHg 51%
13:00 +23°C° 0 mm 1 mps 722 mmHg 50%
14:00 +23°C° 0 mm 1 mps 722 mmHg 49%
15:00 +23°C° 0 mm 2 mps 722 mmHg 48%
16:00 +23°C° 0 mm 2 mps 722 mmHg 47%
17:00 +21°C° 0 mm 2 mps 722 mmHg 57%
18:00 +20°C° 0 mm 1 mps 722 mmHg 66%
19:00 +19°C° 0 mm 1 mps 722 mmHg 75%
20:00 +16°C° 0 mm 1 mps 722 mmHg 78%
21:00 +15°C° 0 mm 1 mps 722 mmHg 81%
22:00 +13°C° 0 mm 1 mps 722 mmHg 85%
23:00 +13°C° 0 mm 1 mps 722 mmHg 85%

Tomorrow, 13 July, Monday

Time Temperature Precipitation Wind Pressure Humidity
00:00 +13°C° 0 mm 1 mps 722 mmHg 85%
01:00 +11°C° 0 mm 0 mps 722 mmHg 85%
02:00 +11°C° 0 mm 0 mps 722 mmHg 86%
03:00 +10°C° 0 mm 0 mps 721 mmHg 87%
04:00 +10°C° 0 mm 0 mps 721 mmHg 88%
05:00 +12°C° 0 mm 0 mps 721 mmHg 82%
06:00 +14°C° 0 mm 0 mps 722 mmHg 76%
07:00 +16°C° 0 mm 0 mps 722 mmHg 69%
08:00 +20°C° 0 mm 1 mps 722 mmHg 63%
09:00 +21°C° 0 mm 1 mps 721 mmHg 56%
10:00 +23°C° 0 mm 1 mps 721 mmHg 49%
11:00 +23°C° 0 mm 2 mps 721 mmHg 47%
12:00 +24°C° 0 mm 2 mps 721 mmHg 44%
13:00 +24°C° 0 mm 2 mps 720 mmHg 42%
14:00 +24°C° 0 mm 2 mps 720 mmHg 44%
15:00 +24°C° 0 mm 2 mps 719 mmHg 45%
16:00 +24°C° 0 mm 2 mps 719 mmHg 46%
17:00 +21°C° 0 mm 2 mps 718 mmHg 55%
18:00 +21°C° 0 mm 1 mps 718 mmHg 64%
19:00 +19°C° 0 mm 1 mps 718 mmHg 73%
20:00 +18°C° 0 mm 1 mps 718 mmHg 76%
21:00 +15°C° 0 mm 1 mps 718 mmHg 78%
22:00 +14°C° 0 mm 1 mps 718 mmHg 80%
23:00 +14°C° 0 mm 1 mps 718 mmHg 80%

Day after tomorrow, 14 July, Tuesday

Time Temperature Precipitation Wind Pressure Humidity
00:00 +12°C° 0 mm 0 mps 718 mmHg 80%
01:00 +12°C° 0 mm 0 mps 718 mmHg 80%
02:00 +12°C° 0 mm 0 mps 718 mmHg 81%
03:00 +11°C° 0 mm 0 mps 717 mmHg 82%
04:00 +11°C° 0 mm 0 mps 717 mmHg 83%
05:00 +13°C° 0 mm 0 mps 717 mmHg 78%
06:00 +15°C° 0 mm 0 mps 718 mmHg 72%
07:00 +16°C° 0 mm 0 mps 718 mmHg 67%
08:00 +20°C° 0 mm 1 mps 718 mmHg 62%
09:00 +22°C° 0 mm 1 mps 718 mmHg 57%
10:00 +23°C° 0 mm 1 mps 718 mmHg 52%
11:00 +24°C° 0 mm 2 mps 717 mmHg 51%
12:00 +24°C° 0 mm 2 mps 717 mmHg 51%
13:00 +24°C° 0 mm 2 mps 717 mmHg 51%
14:00 +24°C° 0 mm 2 mps 717 mmHg 51%
15:00 +24°C° 0 mm 2 mps 716 mmHg 52%
16:00 +24°C° 0 mm 2 mps 716 mmHg 52%
17:00 +23°C° 0 mm 2 mps 716 mmHg 61%
18:00 +22°C° 0 mm 1 mps 716 mmHg 69%
19:00 +20°C° 0 mm 1 mps 716 mmHg 78%
20:00 +19°C° 0 mm 1 mps 716 mmHg 80%
21:00 +18°C° 0 mm 1 mps 716 mmHg 82%
22:00 +14°C° 0 mm 0 mps 716 mmHg 85%
23:00 +14°C° 0 mm 0 mps 716 mmHg 85%

15 July, Wednesday

Time Temperature Precipitation Wind Pressure Humidity
00:00 +13°C° 0 mm 0 mps 716 mmHg 85%
01:00 +13°C° 0 mm 0 mps 716 mmHg 85%
02:00 +13°C° 0 mm 0 mps 716 mmHg 86%
03:00 +12°C° 0 mm 0 mps 715 mmHg 87%
04:00 +12°C° 0 mm 0 mps 715 mmHg 87%
05:00 +14°C° 0 mm 0 mps 715 mmHg 82%
06:00 +16°C° 0 mm 0 mps 716 mmHg 77%
07:00 +18°C° 0 mm 0 mps 716 mmHg 72%
08:00 +19°C° 0 mm 0 mps 716 mmHg 66%
09:00 +23°C° 0 mm 1 mps 716 mmHg 60%
10:00 +24°C° 0 mm 1 mps 716 mmHg 54%
11:00 +25°C° 0.1 mm 1 mps 716 mmHg 51%
12:00 +26°C° 0.1 mm 1 mps 716 mmHg 49%
13:00 +26°C° 0.1 mm 1 mps 716 mmHg 47%
14:00 +26°C° 0.2 mm 1 mps 715 mmHg 52%
15:00 +25°C° 0.2 mm 1 mps 715 mmHg 56%
16:00 +25°C° 0.2 mm 1 mps 715 mmHg 60%
17:00 +24°C° 0.2 mm 1 mps 715 mmHg 68%
18:00 +22°C° 0.2 mm 1 mps 715 mmHg 75%
19:00 +21°C° 0.2 mm 1 mps 715 mmHg 83%
20:00 +20°C° 0.1 mm 1 mps 715 mmHg 85%
21:00 +18°C° 0.1 mm 1 mps 715 mmHg 87%
22:00 +16°C° 0.1 mm 1 mps 715 mmHg 89%
23:00 +16°C° 0 mm 1 mps 715 mmHg 89%

16 July, Thursday

Time Temperature Precipitation Wind Pressure Humidity
00:00 +16°C° 0 mm 1 mps 715 mmHg 90%
01:00 +16°C° 0 mm 1 mps 715 mmHg 90%
02:00 +16°C° 0.1 mm 1 mps 715 mmHg 91%
03:00 +15°C° 0.1 mm 1 mps 715 mmHg 93%
04:00 +15°C° 0.1 mm 1 mps 715 mmHg 94%
05:00 +16°C° 0.4 mm 1 mps 715 mmHg 93%
06:00 +16°C° 0.4 mm 1 mps 716 mmHg 93%
07:00 +18°C° 0.4 mm 1 mps 716 mmHg 92%
08:00 +16°C° 0.8 mm 0 mps 716 mmHg 93%
09:00 +16°C° 0.8 mm 0 mps 717 mmHg 93%
10:00 +16°C° 0.8 mm 0 mps 717 mmHg 94%
11:00 +16°C° 0.9 mm 0 mps 717 mmHg 95%
12:00 +18°C° 0.9 mm 1 mps 717 mmHg 95%
13:00 +18°C° 0.9 mm 1 mps 717 mmHg 96%
14:00 +16°C° 0.4 mm 0 mps 717 mmHg 95%
15:00 +16°C° 0.4 mm 0 mps 717 mmHg 95%
16:00 +15°C° 0.4 mm 0 mps 716 mmHg 95%
17:00 +15°C° 0 mm 0 mps 716 mmHg 94%
18:00 +15°C° 0 mm 0 mps 717 mmHg 94%
19:00 +15°C° 0 mm 0 mps 717 mmHg 93%
20:00 +15°C° 0 mm 0 mps 717 mmHg 93%
21:00 +15°C° 0 mm 1 mps 717 mmHg 93%
22:00 +14°C° 0 mm 1 mps 717 mmHg 93%
23:00 +14°C° 0 mm 1 mps 717 mmHg 93%

17 July, Friday

Time Temperature Precipitation Wind Pressure Humidity
00:00 +13°C° 0 mm 1 mps 717 mmHg 93%
01:00 +13°C° 0 mm 1 mps 717 mmHg 93%
02:00 +12°C° 0 mm 1 mps 717 mmHg 93%
03:00 +12°C° 0 mm 1 mps 717 mmHg 93%
04:00 +12°C° 0 mm 1 mps 717 mmHg 93%
05:00 +13°C° 0 mm 1 mps 717 mmHg 90%
06:00 +14°C° 0 mm 1 mps 717 mmHg 87%
07:00 +15°C° 0 mm 0 mps 717 mmHg 84%
08:00 +19°C° 0 mm 1 mps 717 mmHg 73%
09:00 +21°C° 0 mm 1 mps 718 mmHg 63%
10:00 +23°C° 0 mm 1 mps 718 mmHg 53%
11:00 +23°C° 0.1 mm 1 mps 717 mmHg 52%
12:00 +24°C° 0.1 mm 1 mps 717 mmHg 51%
13:00 +24°C° 0.1 mm 1 mps 717 mmHg 50%
14:00 +24°C° 0.1 mm 1 mps 717 mmHg 51%
15:00 +24°C° 0.1 mm 1 mps 717 mmHg 53%
16:00 +23°C° 0.1 mm 2 mps 716 mmHg 55%
17:00 +22°C° 0.1 mm 1 mps 716 mmHg 63%
18:00 +20°C° 0.1 mm 1 mps 716 mmHg 70%
19:00 +19°C° 0.1 mm 1 mps 716 mmHg 78%
20:00 +16°C° 0 mm 1 mps 717 mmHg 79%
21:00 +15°C° 0 mm 1 mps 717 mmHg 80%
22:00 +13°C° 0 mm 1 mps 718 mmHg 81%
23:00 +13°C° 0 mm 1 mps 718 mmHg 83%
Show more